Wrangell, AK

9:43 PM AKDT on May 27, 2018 (GMT -0800)
Wrangell

Weather History for PAWG - October, 2013

Change the Weather History Date:

Thursday, October 24, 2013

  Actual Average Record
Temperature  
Mean Temperature 48 °F -  
Max Temperature 51 °F 48 °F 63 °F (1980)
Min Temperature 46 °F 38 °F 24 °F (1966)
Degree Days  
Heating Degree Days 16    
Moisture  
Dew Point 44 °F    
Average Humidity 86    
Maximum Humidity 93    
Minimum Humidity 82    
Precipitation  
Precipitation 0.00 in - - ()
Sea Level Pressure  
Sea Level Pressure 30.12 in    
Wind  
Wind Speed 1 mph (NW)    
Max Wind Speed 7 mph    
Max Gust Speed -    
Visibility 10 miles    
Events      
Averages and records for this station are not official NWS values.
T = Trace of Precipitation, MM = Missing Value Source: NWS Daily Summary

Daily Weather History Graph

Daily Weather History Graph

Search for Another Location

Airport or City:

Astronomy

Oct. 24, 2013 Rise Set
Actual Time 7:41 AM AKDT 5:24 PM AKDT
Civil Twilight 7:02 AM AKDT 6:03 PM AKDT
Nautical Twilight 6:18 AM AKDT 6:47 PM AKDT
Astronomical Twilight 5:34 AM AKDT 7:30 PM AKDT
Moon 9:31 PM AKDT (10/24) 1:13 PM AKDT (10/24)
Length of Visible Light 11h 01m
Length of Day
9h 42m
Waning Gibbous, 70% of the Moon is Illuminated
Oct 24
Waning Gibbous
Oct 26
Last Quarter
Nov 3
New
Nov 9
First Quarter
Nov 17
Full

Hourly Weather History & Observations

Time (AKDT) Temp. Windchill Dew Point Humidity Pressure Visibility Wind Dir Wind Speed Gust Speed Precip Events Conditions
12:16 AM 51.8 °F - 46.4 °F 82% 30.04 in 10.0 mi SSE 3.5 mph - N/A   Overcast
12:36 AM 50.0 °F - 46.4 °F 87% 30.05 in 10.0 mi Calm Calm - N/A   Overcast
12:56 AM 48.2 °F - 44.6 °F 87% 30.05 in 10.0 mi Calm Calm - N/A   Overcast
1:16 AM 48.2 °F - 44.6 °F 87% 30.05 in 10.0 mi Calm Calm - N/A   Overcast
1:36 AM 48.2 °F - 44.6 °F 87% 30.06 in 10.0 mi Calm Calm - N/A   Overcast
1:56 AM 48.2 °F - 44.6 °F 87% 30.05 in 10.0 mi Calm Calm - N/A   Overcast
2:16 AM 48.2 °F - 44.6 °F 87% 30.05 in 7.0 mi Calm Calm - N/A   Overcast
2:36 AM 48.2 °F - 44.6 °F 87% 30.05 in 10.0 mi Calm Calm - N/A   Overcast
2:56 AM 48.2 °F - 44.6 °F 87% 30.05 in 9.0 mi Calm Calm - N/A   Overcast
3:16 AM 48.2 °F - 44.6 °F 87% 30.05 in 10.0 mi Calm Calm - N/A   Overcast
3:36 AM 48.2 °F - 44.6 °F 87% 30.05 in 10.0 mi Calm Calm - N/A   Mostly Cloudy
3:56 AM 48.2 °F - 44.6 °F 87% 30.05 in 9.0 mi NNE 3.5 mph - N/A   Overcast
4:16 AM 48.2 °F - 44.6 °F 87% 30.06 in 10.0 mi West 3.5 mph - N/A   Overcast
4:36 AM 50.0 °F - 44.6 °F 82% 30.06 in 10.0 mi West 5.8 mph - N/A   Overcast
4:56 AM 50.0 °F - 44.6 °F 82% 30.06 in 5.0 mi Calm Calm - N/A   Overcast
5:16 AM 48.2 °F - 44.6 °F 87% 30.07 in 10.0 mi North 3.5 mph - N/A   Mostly Cloudy
5:36 AM 48.2 °F - 44.6 °F 87% 30.07 in 10.0 mi Calm Calm - N/A   Mostly Cloudy
5:56 AM 48.2 °F - 44.6 °F 87% 30.07 in 10.0 mi Calm Calm - N/A   Mostly Cloudy
6:16 AM 48.2 °F - 44.6 °F 87% 30.07 in 10.0 mi Calm Calm - N/A   Mostly Cloudy
6:36 AM 48.2 °F - 44.6 °F 87% 30.08 in 10.0 mi Calm Calm - N/A   Mostly Cloudy
6:56 AM 48.2 °F - 44.6 °F 87% 30.08 in 10.0 mi Calm Calm - N/A   Mostly Cloudy
7:16 AM 48.2 °F - 44.6 °F 87% 30.08 in 10.0 mi Calm Calm - N/A   Mostly Cloudy
7:36 AM 48.2 °F - 44.6 °F 87% 30.08 in 10.0 mi Calm Calm - N/A   Mostly Cloudy
7:56 AM 46.4 °F - 42.8 °F 87% 30.09 in 10.0 mi Calm Calm - N/A   Mostly Cloudy
8:16 AM 48.2 °F - 44.6 °F 87% 30.09 in 10.0 mi Calm Calm - N/A   Mostly Cloudy
8:36 AM 48.2 °F - 44.6 °F 87% 30.10 in 10.0 mi Calm Calm - N/A   Mostly Cloudy
8:56 AM 48.2 °F - 44.6 °F 87% 30.10 in 10.0 mi Calm Calm - N/A   Mostly Cloudy
9:16 AM 48.2 °F - 44.6 °F 87% 30.10 in 10.0 mi Calm Calm - N/A   Mostly Cloudy
9:36 AM 48.2 °F - 44.6 °F 87% 30.11 in 10.0 mi Calm Calm - N/A   Mostly Cloudy
9:56 AM 48.2 °F - 44.6 °F 87% 30.12 in 10.0 mi Calm Calm - N/A   Mostly Cloudy
10:16 AM 48.2 °F - 44.6 °F 87% 30.13 in 10.0 mi Calm Calm - N/A   Mostly Cloudy
10:36 AM 48.2 °F - 44.6 °F 87% 30.14 in 10.0 mi NNW 3.5 mph - N/A   Mostly Cloudy
10:56 AM 48.2 °F - 44.6 °F 87% 30.14 in 10.0 mi Calm Calm - N/A   Mostly Cloudy
11:16 AM 46.4 °F 45.2 °F 44.6 °F 93% 30.15 in 10.0 mi NNW 3.5 mph - N/A   Mostly Cloudy
11:36 AM 48.2 °F - 44.6 °F 87% 30.15 in 10.0 mi NW 4.6 mph - N/A   Mostly Cloudy
11:56 AM 48.2 °F - 44.6 °F 87% 30.15 in 10.0 mi NW 4.6 mph - N/A   Mostly Cloudy
12:16 PM 48.2 °F - 44.6 °F 87% 30.15 in 10.0 mi NW 4.6 mph - N/A   Mostly Cloudy
12:36 PM 48.2 °F - 44.6 °F 87% 30.15 in 10.0 mi NNW 4.6 mph - N/A   Mostly Cloudy
12:56 PM 48.2 °F - 44.6 °F 87% 30.15 in 10.0 mi Calm Calm - N/A   Mostly Cloudy
1:16 PM 48.2 °F - 44.6 °F 87% 30.14 in 10.0 mi Calm Calm - N/A   Mostly Cloudy
1:36 PM 50.0 °F - 46.4 °F 87% 30.14 in 10.0 mi Calm Calm - N/A   Mostly Cloudy
1:56 PM 50.0 °F - 44.6 °F 82% 30.14 in 10.0 mi NNW 3.5 mph - N/A   Clear
2:16 PM 50.0 °F - 44.6 °F 82% 30.14 in 10.0 mi North 4.6 mph - N/A   Mostly Cloudy
2:36 PM 48.2 °F - 44.6 °F 87% 30.13 in 10.0 mi NNW 4.6 mph - N/A   Mostly Cloudy
2:56 PM 48.2 °F - 44.6 °F 87% 30.13 in 10.0 mi NW 6.9 mph - N/A   Mostly Cloudy
3:16 PM 48.2 °F - 44.6 °F 87% 30.13 in 10.0 mi NW 4.6 mph - N/A   Mostly Cloudy
3:36 PM 50.0 °F - 44.6 °F 82% 30.13 in 10.0 mi Calm Calm - N/A   Mostly Cloudy
3:56 PM 50.0 °F - 44.6 °F 82% 30.13 in 10.0 mi Calm Calm - N/A   Mostly Cloudy
4:16 PM 50.0 °F - 44.6 °F 82% 30.12 in 10.0 mi Calm Calm - N/A   Mostly Cloudy
4:36 PM 50.0 °F - 44.6 °F 82% 30.12 in 10.0 mi NW 3.5 mph - N/A   Mostly Cloudy
4:56 PM 48.2 °F - 42.8 °F 82% 30.14 in 10.0 mi Calm Calm - N/A   Scattered Clouds
5:16 PM 48.2 °F - 42.8 °F 82% 30.13 in 10.0 mi Calm Calm - N/A   Scattered Clouds
5:36 PM 48.2 °F - 44.6 °F 87% 30.14 in 10.0 mi Calm Calm - N/A   Scattered Clouds
5:56 PM 48.2 °F - 44.6 °F 87% 30.14 in 10.0 mi Calm Calm - N/A   Overcast
6:16 PM 48.2 °F - 44.6 °F 87% 30.14 in 10.0 mi Calm Calm - N/A   Overcast
6:36 PM 48.2 °F - 44.6 °F 87% 30.15 in 10.0 mi Calm Calm - N/A   Overcast
6:56 PM 48.2 °F - 44.6 °F 87% 30.15 in 10.0 mi Calm Calm - N/A   Overcast
7:16 PM 46.4 °F - 42.8 °F 87% 30.15 in 10.0 mi Calm Calm - N/A   Overcast
7:36 PM 46.4 °F - 42.8 °F 87% 30.15 in 10.0 mi Calm Calm - N/A   Overcast
7:56 PM 46.4 °F - 42.8 °F 87% 30.15 in 10.0 mi Calm Calm - N/A   Overcast
8:16 PM 46.4 °F - 42.8 °F 87% 30.16 in 10.0 mi Calm Calm - N/A   Overcast
8:36 PM 46.4 °F - 42.8 °F 87% 30.16 in 10.0 mi Calm Calm - N/A   Overcast
8:56 PM 46.4 °F - 42.8 °F 87% 30.16 in 10.0 mi Calm Calm - N/A   Overcast
9:16 PM 46.4 °F - 44.6 °F 93% 30.17 in 10.0 mi Calm Calm - N/A   Overcast
9:36 PM 46.4 °F - 44.6 °F 93% 30.17 in 10.0 mi Calm Calm - N/A   Overcast
9:56 PM 48.2 °F - 44.6 °F 87% 30.17 in 10.0 mi SE 4.6 mph - N/A   Overcast
10:16 PM 48.2 °F - 44.6 °F 87% 30.16 in 10.0 mi Calm Calm - N/A   Overcast
10:36 PM 48.2 °F - 44.6 °F 87% 30.17 in 10.0 mi Calm Calm - N/A   Overcast
10:56 PM 46.4 °F - 42.8 °F 87% 30.18 in 10.0 mi Calm Calm - N/A   Overcast
11:16 PM 46.4 °F - 42.8 °F 87% 30.19 in 10.0 mi Calm Calm - N/A   Overcast
11:36 PM 46.4 °F - 42.8 °F 87% 30.20 in 10.0 mi Calm Calm - N/A   Overcast
11:56 PM 48.2 °F - 44.6 °F 87% 30.20 in 10.0 mi Calm Calm - N/A   Overcast